Weather History for KPYM - September, 2013

Change the Weather History Date:

Monday, September 23, 2013

  Actual Average Record
Temperature  
Mean Temperature 55 °F -  
Max Temperature 64 °F 71 °F 90 °F (1980)
Min Temperature 46 °F 51 °F 35 °F (1969)
Degree Days  
Heating Degree Days 10    
Growing Degree Days 5 (Base 50)    
Moisture  
Dew Point 41 °F    
Average Humidity 62    
Maximum Humidity 77    
Minimum Humidity 45    
Precipitation  
Precipitation 0.00 in - - ()
Sea Level Pressure  
Sea Level Pressure 29.91 in    
Wind  
Wind Speed 7 mph (NW)    
Max Wind Speed 12 mph    
Max Gust Speed 21 mph    
Visibility 10 miles    
Events      
Averages and records for this station are not official NWS values.
T = Trace of Precipitation, MM = Missing Value Source: NWS Daily Summary

Daily Weather History Graph

Daily Weather History Graph

Search for Another Location

Airport or City:

Trip Planner

Search our weather history database for the weather conditions in past years. The results will help you decide how hot, cold, wet, or windy it might be!

Date:

Astronomy

Sep. 23, 2013 Rise Set
Actual Time 6:31 AM EDT 6:38 PM EDT
Civil Twilight 6:03 AM EDT 7:05 PM EDT
Nautical Twilight 5:31 AM EDT 7:38 PM EDT
Astronomical Twilight 4:57 AM EDT 8:11 PM EDT
Moon 9:03 PM EDT (9/23) 10:52 AM EDT (9/23)
Length of Visible Light 13h 02m
Length of Day
12h 06m
Waning Gibbous, 81% of the Moon is Illuminated
Sep 23
Waning Gibbous
Sep 26
Last Quarter
Oct 4
New
Oct 11
First Quarter
Oct 18
Full

Hourly Weather History & Observations

Time (EDT) Temp. Windchill Dew Point Humidity Pressure Visibility Wind Dir Wind Speed Gust Speed Precip Events Conditions
12:52 AM 52.0 °F - 45.0 °F 77% 29.83 in 10.0 mi NW 8.1 mph - N/A   Clear
1:52 AM 51.1 °F - 43.0 °F 74% 29.84 in 10.0 mi NW 4.6 mph - N/A   Clear
2:52 AM 51.1 °F - 41.0 °F 68% 29.84 in 10.0 mi WNW 6.9 mph - N/A   Clear
3:52 AM 48.9 °F - 41.0 °F 74% 29.85 in 10.0 mi NW 6.9 mph - N/A   Clear
4:52 AM 48.0 °F - 39.9 °F 74% 29.86 in 10.0 mi NW 8.1 mph - N/A   Clear
5:52 AM 46.9 °F - 39.0 °F 74% 29.88 in 10.0 mi NW 6.9 mph - N/A   Clear
6:52 AM 46.0 °F 42.5 °F 39.0 °F 76% 29.90 in 10.0 mi NW 6.9 mph - N/A   Clear
7:52 AM 48.9 °F - 39.9 °F 71% 29.91 in 10.0 mi WNW 5.8 mph - N/A   Clear
8:52 AM 53.1 °F - 39.0 °F 59% 29.91 in 10.0 mi NW 11.5 mph 20.7 mph N/A   Clear
9:52 AM 55.0 °F - 39.0 °F 55% 29.91 in 10.0 mi NNW 10.4 mph 20.7 mph N/A   Clear
10:52 AM 57.0 °F - 39.0 °F 51% 29.91 in 10.0 mi NNW 10.4 mph - N/A   Clear
11:52 AM 55.0 °F - 39.9 °F 57% 29.91 in 10.0 mi WNW 9.2 mph - N/A   Clear
12:52 PM 61.0 °F - 41.0 °F 48% 29.91 in 10.0 mi West 8.1 mph 18.4 mph N/A   Clear
1:52 PM 62.1 °F - 41.0 °F 46% 29.90 in 10.0 mi Variable 5.8 mph 16.1 mph N/A   Clear
2:52 PM 64.0 °F - 42.1 °F 45% 29.90 in 10.0 mi WNW 8.1 mph - N/A   Clear
3:52 PM 64.9 °F - 43.0 °F 45% 29.89 in 10.0 mi NW 9.2 mph 16.1 mph N/A   Clear
4:52 PM 64.0 °F - 42.1 °F 45% 29.90 in 10.0 mi NNW 6.9 mph - N/A   Clear
5:52 PM 57.9 °F - 41.0 °F 53% 29.92 in 10.0 mi NNW 4.6 mph - N/A   Clear
6:52 PM 57.9 °F - 42.1 °F 56% 29.94 in 10.0 mi NNW 5.8 mph - N/A   Clear
7:52 PM 55.0 °F - 42.1 °F 62% 29.96 in 10.0 mi NNW 8.1 mph - N/A   Clear
8:52 PM 52.0 °F - 41.0 °F 66% 29.99 in 10.0 mi North 8.1 mph - N/A   Clear
9:52 PM 50.0 °F - 41.0 °F 71% 30.00 in 10.0 mi NNW 5.8 mph - N/A   Clear
10:52 PM 50.0 °F - 39.0 °F 66% 30.00 in 10.0 mi NNW 6.9 mph - N/A   Clear
11:52 PM 46.9 °F - 37.9 °F 71% 30.00 in 10.0 mi NNW 5.8 mph - N/A   Clear